DAL435 PHLI-KLAX

Flight info

Callsign DAL435
Flight time N/A
Altitude 35000
Route LIH V15 MKK EBBER R577 ELKEY RYDRR2
Aircraft A21N/M-SDE2E3FGHIRWXY/LB1

Departure

Time 2026-04-26 08:18
Airport Lihue Airport (PHLI)

Arrival

Time N/A
Airport Los Angeles International Airport (KLAX)
Time Latitude Longitude Altitude Speed Heading
2026-04-26 07:45 21.97841 -159.34776 153 ft 0 kts 315°
2026-04-26 08:10 21.97835 -159.34770 153 ft 3 kts 314°
2026-04-26 08:11 21.97821 -159.34754 153 ft 3 kts 306°
2026-04-26 08:11 21.97810 -159.34736 153 ft 3 kts 294°
2026-04-26 08:11 21.97802 -159.34717 153 ft 3 kts 268°
2026-04-26 08:11 21.97803 -159.34701 153 ft 2 kts 227°
2026-04-26 08:12 21.97805 -159.34698 153 ft 1 kts 225°
2026-04-26 08:14 21.97803 -159.34700 153 ft 1 kts 225°
2026-04-26 08:15 21.97792 -159.34712 153 ft 3 kts 224°
2026-04-26 08:15 21.97771 -159.34735 153 ft 7 kts 225°
2026-04-26 08:15 21.97678 -159.34835 154 ft 19 kts 225°
2026-04-26 08:15 21.97581 -159.34861 154 ft 15 kts 138°
2026-04-26 08:16 21.97520 -159.34822 154 ft 15 kts 189°
2026-04-26 08:16 21.97429 -159.34904 154 ft 19 kts 224°
2026-04-26 08:16 21.97340 -159.34917 152 ft 13 kts 140°
2026-04-26 08:16 21.97337 -159.34838 152 ft 15 kts 55°
2026-04-26 08:17 21.97355 -159.34818 153 ft 4 kts 46°
2026-04-26 08:17 21.97360 -159.34812 153 ft 0 kts 46°
2026-04-26 08:17 21.97405 -159.34763 153 ft 36 kts 45°
2026-04-26 08:18 21.97736 -159.34417 136 ft 102 kts 44°
2026-04-26 08:18 21.98389 -159.33709 160 ft 158 kts 45°
2026-04-26 08:18 21.99252 -159.32905 853 ft 165 kts 39°
2026-04-26 08:18 21.99872 -159.31846 1438 ft 185 kts 82°
2026-04-26 08:19 21.99628 -159.30290 1434 ft 245 kts 118°
2026-04-26 08:19 21.98465 -159.28847 2380 ft 256 kts 133°
2026-04-26 08:19 21.97160 -159.27517 3655 ft 258 kts 131°
2026-04-26 08:19 21.96195 -159.25932 4828 ft 253 kts 103°
2026-04-26 08:20 21.96045 -159.24086 5903 ft 254 kts 86°
2026-04-26 08:20 21.96175 -159.22161 6871 ft 260 kts 85°
2026-04-26 08:20 21.96330 -159.20197 7813 ft 266 kts 85°
2026-04-26 08:20 21.96473 -159.18187 8747 ft 271 kts 86°
2026-04-26 08:21 21.96599 -159.16130 9668 ft 278 kts 86°
2026-04-26 08:21 21.96716 -159.14027 10473 ft 286 kts 86°
2026-04-26 08:21 21.96835 -159.11810 10925 ft 308 kts 86°
2026-04-26 08:21 21.96959 -159.09433 11406 ft 327 kts 87°
2026-04-26 08:22 21.96987 -159.06911 11958 ft 345 kts 90°
2026-04-26 08:22 21.96935 -159.04262 12568 ft 362 kts 91°
2026-04-26 08:22 21.96867 -159.01545 13203 ft 376 kts 91°
2026-04-26 08:22 21.96793 -158.98664 13915 ft 388 kts 91°
2026-04-26 08:23 21.96716 -158.95741 14756 ft 393 kts 91°
2026-04-26 08:23 21.96638 -158.92779 15625 ft 398 kts 91°
2026-04-26 08:23 21.96559 -158.89779 16454 ft 403 kts 91°
2026-04-26 08:23 21.96478 -158.86732 17299 ft 408 kts 91°
2026-04-26 08:24 21.96396 -158.83653 18102 ft 414 kts 91°
2026-04-26 08:24 21.96312 -158.80530 18853 ft 419 kts 91°
2026-04-26 08:24 21.96225 -158.77383 19572 ft 423 kts 90°
2026-04-26 08:24 21.96139 -158.74179 20297 ft 428 kts 90°
2026-04-26 08:25 21.96050 -158.70956 20997 ft 433 kts 90°
2026-04-26 08:25 21.95961 -158.67740 21684 ft 437 kts 90°
2026-04-26 08:25 21.95871 -158.64444 22368 ft 442 kts 90°
2026-04-26 08:25 21.95777 -158.61136 23039 ft 447 kts 90°
2026-04-26 08:26 21.95682 -158.57769 23691 ft 452 kts 90°
2026-04-26 08:26 21.95585 -158.54369 24262 ft 455 kts 90°
2026-04-26 08:26 21.95487 -158.50932 24827 ft 460 kts 90°
2026-04-26 08:26 21.95387 -158.47471 25393 ft 464 kts 90°
2026-04-26 08:27 21.95285 -158.43983 25941 ft 468 kts 90°
2026-04-26 08:27 21.95182 -158.40466 26498 ft 472 kts 90°
2026-04-26 08:27 21.95077 -158.36921 27092 ft 475 kts 90°
2026-04-26 08:27 21.94971 -158.33348 27568 ft 480 kts 90°
2026-04-26 08:28 21.94863 -158.29736 28108 ft 484 kts 90°
2026-04-26 08:28 21.94753 -158.26096 28640 ft 488 kts 90°
2026-04-26 08:28 21.94642 -158.22433 29150 ft 492 kts 90°
2026-04-26 08:28 21.94530 -158.18787 29662 ft 496 kts 90°
2026-04-26 08:29 21.94415 -158.15061 30164 ft 499 kts 90°
2026-04-26 08:29 21.94298 -158.11304 30581 ft 504 kts 90°
2026-04-26 08:29 21.94180 -158.07520 30970 ft 507 kts 90°
2026-04-26 08:29 21.94060 -158.03713 31092 ft 510 kts 90°
2026-04-26 08:30 21.93816 -157.96065 31107 ft 511 kts 90°
2026-04-26 08:30 21.93569 -157.88420 31109 ft 511 kts 90°
2026-04-26 08:31 21.93318 -157.80777 31114 ft 510 kts 90°
2026-04-26 08:31 21.93066 -157.73179 31118 ft 511 kts 90°
2026-04-26 08:32 21.92808 -157.65529 31123 ft 511 kts 90°
2026-04-26 08:32 21.92546 -157.57878 31127 ft 511 kts 90°
2026-04-26 08:33 21.92281 -157.50222 31123 ft 511 kts 90°
2026-04-26 08:33 21.92013 -157.42577 31131 ft 511 kts 90°
2026-04-26 08:34 21.91742 -157.34967 31133 ft 511 kts 90°
2026-04-26 08:34 21.91466 -157.27313 31140 ft 511 kts 90°
2026-04-26 08:35 21.91186 -157.19663 31146 ft 511 kts 90°
2026-04-26 08:35 21.90904 -157.12017 31142 ft 511 kts 90°
2026-04-26 08:36 21.90619 -157.04411 31157 ft 511 kts 90°
2026-04-26 08:36 21.90329 -156.96754 31158 ft 511 kts 90°
2026-04-26 08:37 21.90035 -156.89100 31160 ft 511 kts 90°
2026-04-26 08:37 21.89741 -156.81500 31165 ft 511 kts 90°
2026-04-26 08:38 21.89440 -156.73863 31165 ft 511 kts 90°
2026-04-26 08:38 21.89137 -156.66220 31173 ft 511 kts 91°
2026-04-26 08:39 21.88829 -156.58581 31165 ft 511 kts 91°
2026-04-26 08:39 21.88519 -156.50943 31181 ft 511 kts 91°
2026-04-26 08:40 21.88205 -156.43303 31186 ft 511 kts 91°
2026-04-26 08:40 21.87887 -156.35666 31192 ft 510 kts 91°
2026-04-26 08:41 21.87565 -156.28020 31192 ft 510 kts 91°
2026-04-26 08:41 21.87241 -156.20384 31197 ft 510 kts 91°
2026-04-26 08:42 21.86913 -156.12753 31202 ft 510 kts 91°
2026-04-26 08:42 21.86583 -156.05161 31208 ft 510 kts 91°
2026-04-26 08:43 21.86248 -155.97529 31209 ft 510 kts 91°
2026-04-26 08:43 21.85910 -155.89910 31212 ft 510 kts 91°
2026-04-26 08:44 21.85568 -155.82286 31216 ft 510 kts 91°
2026-04-26 08:44 21.85225 -155.74716 31222 ft 509 kts 91°
2026-04-26 08:45 21.84876 -155.67088 31225 ft 509 kts 91°
2026-04-26 08:45 21.84524 -155.59477 31229 ft 509 kts 91°
2026-04-26 08:46 21.84169 -155.51859 31237 ft 509 kts 91°
2026-04-26 08:46 21.83810 -155.44242 31237 ft 509 kts 91°
2026-04-26 08:47 21.83450 -155.36679 31240 ft 509 kts 91°
2026-04-26 08:47 21.83084 -155.29070 31240 ft 509 kts 91°
2026-04-26 08:48 21.82715 -155.21466 31247 ft 509 kts 91°
2026-04-26 08:48 21.82342 -155.13854 31252 ft 509 kts 91°
2026-04-26 08:49 21.81965 -155.06227 31252 ft 509 kts 91°
2026-04-26 08:49 21.81588 -154.98665 31259 ft 509 kts 91°
2026-04-26 08:50 21.81205 -154.91061 31262 ft 509 kts 91°
2026-04-26 08:50 21.80818 -154.83443 31266 ft 509 kts 91°
2026-04-26 08:51 21.80232 -154.72033 31274 ft 509 kts 91°
2026-04-26 08:52 21.79836 -154.64426 31277 ft 509 kts 91°
2026-04-26 08:52 21.79440 -154.56869 31281 ft 509 kts 91°
2026-04-26 08:53 21.79038 -154.49265 31282 ft 509 kts 91°
2026-04-26 08:53 21.78632 -154.41669 31283 ft 508 kts 91°
2026-04-26 08:54 21.78224 -154.34069 31289 ft 508 kts 91°
2026-04-26 08:54 21.77811 -154.26463 31294 ft 508 kts 91°
2026-04-26 08:55 21.77397 -154.18909 31296 ft 508 kts 91°
2026-04-26 08:55 21.76978 -154.11307 31303 ft 509 kts 91°
2026-04-26 08:56 21.76555 -154.03716 31309 ft 509 kts 91°
2026-04-26 08:56 21.76128 -153.96109 31310 ft 509 kts 92°
2026-04-26 08:57 21.75698 -153.88503 31314 ft 509 kts 92°
2026-04-26 08:57 21.75264 -153.80892 31319 ft 509 kts 92°
2026-04-26 08:58 21.74830 -153.73329 31323 ft 509 kts 92°
2026-04-26 08:58 21.74388 -153.65717 31327 ft 510 kts 92°
2026-04-26 08:59 21.73944 -153.58108 31336 ft 510 kts 92°
2026-04-26 08:59 21.73496 -153.50494 31337 ft 510 kts 92°
2026-04-26 09:00 21.73043 -153.42854 31336 ft 511 kts 92°
2026-04-26 09:00 21.72589 -153.35273 31344 ft 511 kts 92°
2026-04-26 09:01 21.72128 -153.27627 31347 ft 512 kts 92°
2026-04-26 09:01 21.71665 -153.19990 31351 ft 512 kts 92°
2026-04-26 09:02 21.71786 -153.12390 31403 ft 507 kts 74°
2026-04-26 09:02 21.73027 -153.08866 31462 ft 503 kts 60°
2026-04-26 09:02 21.74808 -153.05622 31479 ft 503 kts 56°
2026-04-26 09:03 21.78637 -152.99318 31477 ft 502 kts 54°
2026-04-26 09:03 21.82292 -152.92975 31484 ft 503 kts 59°
2026-04-26 09:04 21.85656 -152.86368 31492 ft 503 kts 60°
2026-04-26 09:04 21.88985 -152.79742 31500 ft 502 kts 60°
2026-04-26 09:05 21.91746 -152.74241 31510 ft 503 kts 60°
2026-04-26 09:05 21.95069 -152.67617 31512 ft 503 kts 60°
2026-04-26 09:06 21.98396 -152.60974 31516 ft 503 kts 60°
2026-04-26 09:06 22.01719 -152.54334 31521 ft 503 kts 60°
2026-04-26 09:07 22.05019 -152.47729 31522 ft 503 kts 60°
2026-04-26 09:07 22.08340 -152.41075 31523 ft 503 kts 60°
2026-04-26 09:07 22.09997 -152.37751 31795 ft 498 kts 60°
2026-04-26 09:08 22.11622 -152.34488 32778 ft 487 kts 60°
2026-04-26 09:08 22.13187 -152.31347 33767 ft 477 kts 60°
2026-04-26 09:08 22.14761 -152.28187 34235 ft 479 kts 60°
2026-04-26 09:08 22.16344 -152.25004 34456 ft 484 kts 60°
2026-04-26 09:09 22.17941 -152.21791 34726 ft 488 kts 60°
2026-04-26 09:09 22.19549 -152.18554 34932 ft 493 kts 60°
2026-04-26 09:09 22.21182 -152.15265 35031 ft 501 kts 60°
2026-04-26 09:10 22.24488 -152.08597 35098 ft 505 kts 60°
2026-04-26 09:10 22.27787 -152.01939 35103 ft 505 kts 60°
2026-04-26 09:11 22.31099 -151.95243 35112 ft 505 kts 60°
2026-04-26 09:11 22.34413 -151.88541 35113 ft 505 kts 60°
2026-04-26 09:12 22.37705 -151.81824 35108 ft 505 kts 60°
2026-04-26 09:12 22.40991 -151.75116 35115 ft 506 kts 60°
2026-04-26 09:13 22.44282 -151.68387 35115 ft 506 kts 60°
2026-04-26 09:13 22.47549 -151.61702 35116 ft 506 kts 60°
2026-04-26 09:14 22.50837 -151.54961 35115 ft 506 kts 60°
2026-04-26 09:14 22.54121 -151.48221 35117 ft 507 kts 60°
2026-04-26 09:15 22.57406 -151.41471 35114 ft 507 kts 60°
2026-04-26 09:15 22.60685 -151.34723 35120 ft 507 kts 60°
2026-04-26 09:16 22.63967 -151.27960 35119 ft 507 kts 60°
2026-04-26 09:16 22.67246 -151.21196 35117 ft 507 kts 60°
2026-04-26 09:17 22.70503 -151.14466 35118 ft 507 kts 60°
2026-04-26 09:17 22.73780 -151.07687 35120 ft 508 kts 60°
2026-04-26 09:18 22.77054 -151.00903 35120 ft 508 kts 60°
2026-04-26 09:18 22.80327 -150.94114 35124 ft 508 kts 60°
2026-04-26 09:19 22.83597 -150.87323 35123 ft 509 kts 60°
2026-04-26 09:19 22.86872 -150.80509 35126 ft 509 kts 60°
2026-04-26 09:20 22.90143 -150.73695 35123 ft 510 kts 60°
2026-04-26 09:20 22.93394 -150.66915 35127 ft 510 kts 60°
2026-04-26 09:21 22.96664 -150.60085 35132 ft 510 kts 60°
2026-04-26 09:21 22.99936 -150.53241 35126 ft 511 kts 60°
2026-04-26 09:22 23.03212 -150.46381 35125 ft 511 kts 60°
2026-04-26 09:22 23.06482 -150.39521 35133 ft 511 kts 60°
2026-04-26 09:23 23.09732 -150.32696 35131 ft 512 kts 61°
2026-04-26 09:23 23.12999 -150.25824 35130 ft 512 kts 61°
2026-04-26 09:24 23.16272 -150.18931 35133 ft 512 kts 61°
2026-04-26 09:24 23.19542 -150.12034 35130 ft 513 kts 61°
2026-04-26 09:25 23.22790 -150.05175 35134 ft 513 kts 61°
2026-04-26 09:25 23.26057 -149.98264 35132 ft 513 kts 61°
2026-04-26 09:26 23.29320 -149.91354 35135 ft 514 kts 61°
2026-04-26 09:26 23.32583 -149.84432 35137 ft 514 kts 61°
2026-04-26 09:27 23.35843 -149.77507 35132 ft 514 kts 61°
2026-04-26 09:27 23.39105 -149.70569 35136 ft 515 kts 61°
2026-04-26 09:28 23.42362 -149.63631 35133 ft 515 kts 61°
2026-04-26 09:28 23.45620 -149.56681 35140 ft 515 kts 61°
2026-04-26 09:29 23.48876 -149.49727 35137 ft 515 kts 61°
2026-04-26 09:29 23.52132 -149.42759 35139 ft 516 kts 61°
2026-04-26 09:30 23.55366 -149.35830 35141 ft 516 kts 61°
2026-04-26 09:30 23.58617 -149.28854 35143 ft 516 kts 61°
2026-04-26 09:31 23.61870 -149.21865 35139 ft 516 kts 61°
2026-04-26 09:31 23.65119 -149.14875 35141 ft 517 kts 61°
2026-04-26 09:32 23.68366 -149.07877 35143 ft 517 kts 61°
2026-04-26 09:32 23.71611 -149.00872 35147 ft 517 kts 61°
2026-04-26 09:33 23.74838 -148.93898 35145 ft 518 kts 61°
2026-04-26 09:33 23.78086 -148.86869 35144 ft 518 kts 61°
2026-04-26 09:34 23.81329 -148.79838 35143 ft 518 kts 61°
2026-04-26 09:34 23.84574 -148.72793 35145 ft 519 kts 61°
2026-04-26 09:35 23.87817 -148.65743 35146 ft 519 kts 61°
2026-04-26 09:35 23.91039 -148.58727 35150 ft 520 kts 61°
2026-04-26 09:36 23.94283 -148.51654 35150 ft 520 kts 62°
2026-04-26 09:36 23.97530 -148.44562 35149 ft 521 kts 62°
2026-04-26 09:37 24.00768 -148.37480 35152 ft 521 kts 62°
2026-04-26 09:37 24.04011 -148.30377 35153 ft 521 kts 62°
2026-04-26 09:38 24.07249 -148.23272 35152 ft 522 kts 62°
2026-04-26 09:38 24.10466 -148.16204 35154 ft 522 kts 62°
2026-04-26 09:39 24.13703 -148.09081 35158 ft 523 kts 62°
2026-04-26 09:39 24.16942 -148.01943 35160 ft 523 kts 62°
2026-04-26 09:40 24.20177 -147.94803 35159 ft 523 kts 62°
2026-04-26 09:40 24.23415 -147.87645 35159 ft 524 kts 62°
2026-04-26 09:41 24.26627 -147.80532 35157 ft 524 kts 62°
2026-04-26 09:41 24.29864 -147.73355 35159 ft 525 kts 62°
2026-04-26 09:42 24.33098 -147.66172 35163 ft 525 kts 62°
2026-04-26 09:42 24.36330 -147.58982 35161 ft 526 kts 62°
2026-04-26 09:43 24.39562 -147.51781 35162 ft 526 kts 62°
2026-04-26 09:43 24.42774 -147.44614 35161 ft 526 kts 62°
2026-04-26 09:44 24.46001 -147.37403 35165 ft 527 kts 62°
2026-04-26 09:44 24.49232 -147.30170 35163 ft 527 kts 62°
2026-04-26 09:45 24.52456 -147.22943 35167 ft 527 kts 62°
2026-04-26 09:45 24.55683 -147.15697 35167 ft 528 kts 62°
2026-04-26 09:46 24.58905 -147.08450 35170 ft 528 kts 62°
2026-04-26 09:46 24.62107 -147.01237 35173 ft 529 kts 62°
2026-04-26 09:47 24.65332 -146.93961 35174 ft 529 kts 62°
2026-04-26 09:47 24.68553 -146.86681 35167 ft 529 kts 62°
2026-04-26 09:48 24.71773 -146.79394 35170 ft 530 kts 62°
2026-04-26 09:48 24.74988 -146.72105 35167 ft 530 kts 62°
2026-04-26 09:49 24.78178 -146.64860 35177 ft 530 kts 62°
2026-04-26 09:49 24.81391 -146.57553 35172 ft 530 kts 62°
2026-04-26 09:50 24.84601 -146.50241 35172 ft 530 kts 62°
2026-04-26 09:50 24.87808 -146.42924 35172 ft 531 kts 62°
2026-04-26 09:51 24.91011 -146.35602 35174 ft 531 kts 62°
2026-04-26 09:51 24.94214 -146.28270 35173 ft 531 kts 62°
2026-04-26 09:52 24.97403 -146.20957 35174 ft 531 kts 62°
2026-04-26 09:52 25.02205 -146.09923 35179 ft 532 kts 62°
2026-04-26 09:53 25.05405 -146.02555 35173 ft 533 kts 62°
2026-04-26 09:53 25.08601 -145.95184 35177 ft 533 kts 62°
2026-04-26 09:54 25.11794 -145.87807 35179 ft 533 kts 62°
2026-04-26 09:54 25.14446 -145.81670 35176 ft 533 kts 62°
2026-04-26 09:55 25.18153 -145.73080 35180 ft 533 kts 63°
2026-04-26 09:55 25.21337 -145.65686 35181 ft 533 kts 63°
2026-04-26 09:56 25.23989 -145.59519 35181 ft 534 kts 63°
2026-04-26 09:56 25.27176 -145.52102 35179 ft 534 kts 63°
2026-04-26 09:57 25.30351 -145.44686 35178 ft 534 kts 63°
2026-04-26 09:57 25.33527 -145.37255 35184 ft 534 kts 63°
2026-04-26 09:58 25.36699 -145.29824 35181 ft 534 kts 63°
2026-04-26 09:58 25.39846 -145.22437 35185 ft 535 kts 63°
2026-04-26 09:59 25.43014 -145.14992 35182 ft 535 kts 63°
2026-04-26 09:59 25.46178 -145.07539 35186 ft 535 kts 63°
2026-04-26 10:00 25.49341 -145.00078 35187 ft 535 kts 63°
2026-04-26 10:00 25.52500 -144.92613 35186 ft 535 kts 63°
2026-04-26 10:01 25.55658 -144.85137 35185 ft 536 kts 63°
2026-04-26 10:01 25.58813 -144.77657 35185 ft 536 kts 63°
2026-04-26 10:02 25.61966 -144.70167 35188 ft 536 kts 63°
2026-04-26 10:02 25.65093 -144.62725 35189 ft 536 kts 63°
2026-04-26 10:03 25.68239 -144.55225 35185 ft 537 kts 63°
2026-04-26 10:03 25.71384 -144.47716 35193 ft 537 kts 63°
2026-04-26 10:04 25.74527 -144.40199 35189 ft 537 kts 63°
2026-04-26 10:04 25.77664 -144.32683 35191 ft 537 kts 63°
2026-04-26 10:05 25.80799 -144.25156 35190 ft 537 kts 63°
2026-04-26 10:05 25.83929 -144.17631 35189 ft 537 kts 63°
2026-04-26 10:06 25.87037 -144.10142 35190 ft 537 kts 63°
2026-04-26 10:06 25.90160 -144.02607 35190 ft 537 kts 63°
2026-04-26 10:07 25.93284 -143.95055 35190 ft 537 kts 63°
2026-04-26 10:07 25.96400 -143.87508 35191 ft 537 kts 63°
2026-04-26 10:08 25.99512 -143.79957 35193 ft 537 kts 63°
2026-04-26 10:08 26.02623 -143.72398 35195 ft 537 kts 63°
2026-04-26 10:09 26.05710 -143.64880 35195 ft 537 kts 63°
2026-04-26 10:09 26.08813 -143.57312 35194 ft 538 kts 63°
2026-04-26 10:10 26.11912 -143.49738 35195 ft 537 kts 63°
2026-04-26 10:10 26.15009 -143.42157 35195 ft 537 kts 63°
2026-04-26 10:11 26.18100 -143.34574 35191 ft 537 kts 63°
2026-04-26 10:11 26.21186 -143.26994 35200 ft 537 kts 63°
2026-04-26 10:12 26.24248 -143.19458 35199 ft 537 kts 63°
2026-04-26 10:12 26.27328 -143.11863 35201 ft 537 kts 63°
2026-04-26 10:13 26.30399 -143.04275 35195 ft 537 kts 63°
2026-04-26 10:13 26.33466 -142.96685 35197 ft 537 kts 63°
2026-04-26 10:14 26.36509 -142.89139 35193 ft 537 kts 63°
2026-04-26 10:14 26.39571 -142.81535 35188 ft 537 kts 63°
2026-04-26 10:15 26.42622 -142.73942 35197 ft 536 kts 63°
2026-04-26 10:15 26.45670 -142.66342 35202 ft 537 kts 64°
2026-04-26 10:16 26.48718 -142.58730 35204 ft 536 kts 64°
2026-04-26 10:16 26.51760 -142.51116 35202 ft 537 kts 64°
2026-04-26 10:17 26.54799 -142.43498 35202 ft 537 kts 64°
2026-04-26 10:17 26.57818 -142.35913 35198 ft 537 kts 64°
2026-04-26 10:18 26.60848 -142.28290 35202 ft 537 kts 64°
2026-04-26 10:18 26.63875 -142.20657 35198 ft 537 kts 64°
2026-04-26 10:19 26.66898 -142.13022 35196 ft 537 kts 64°
2026-04-26 10:19 26.69921 -142.05373 35197 ft 537 kts 64°
2026-04-26 10:20 26.72429 -141.99013 35198 ft 537 kts 64°
2026-04-26 10:20 26.75934 -141.90111 35204 ft 538 kts 64°
2026-04-26 10:21 26.78946 -141.82447 35203 ft 538 kts 64°
2026-04-26 10:21 26.81955 -141.74774 35202 ft 538 kts 64°
2026-04-26 10:22 26.84959 -141.67099 35202 ft 538 kts 64°
2026-04-26 10:22 26.87963 -141.59410 35203 ft 538 kts 64°
2026-04-26 10:23 26.90941 -141.51773 35202 ft 537 kts 64°
2026-04-26 10:23 26.93932 -141.44087 35204 ft 537 kts 64°
2026-04-26 10:24 26.96915 -141.36408 35208 ft 537 kts 64°
2026-04-26 10:24 26.99896 -141.28719 35206 ft 537 kts 64°
2026-04-26 10:25 27.02867 -141.21041 35205 ft 536 kts 64°
2026-04-26 10:25 27.05836 -141.13352 35205 ft 536 kts 64°
2026-04-26 10:26 27.08795 -141.05675 35202 ft 536 kts 64°
2026-04-26 10:26 27.11731 -140.98044 35201 ft 536 kts 64°
2026-04-26 10:27 27.14681 -140.90360 35199 ft 536 kts 64°
2026-04-26 10:27 27.17624 -140.82682 35202 ft 536 kts 64°
2026-04-26 10:28 27.20565 -140.74992 35202 ft 535 kts 64°
2026-04-26 10:28 27.23500 -140.67303 35203 ft 535 kts 64°
2026-04-26 10:29 27.26428 -140.59616 35203 ft 535 kts 64°
2026-04-26 10:29 27.29357 -140.51913 35198 ft 535 kts 64°
2026-04-26 10:30 27.32258 -140.44268 35203 ft 534 kts 64°
2026-04-26 10:30 27.35175 -140.36569 35202 ft 535 kts 64°
2026-04-26 10:31 27.38084 -140.28871 35200 ft 534 kts 64°
2026-04-26 10:31 27.40988 -140.21175 35197 ft 534 kts 64°
2026-04-26 10:32 27.43885 -140.13478 35197 ft 534 kts 64°
2026-04-26 10:32 27.46782 -140.05771 35197 ft 534 kts 64°
2026-04-26 10:33 27.49671 -139.98066 35196 ft 534 kts 64°
2026-04-26 10:33 27.52563 -139.90338 35195 ft 534 kts 64°
2026-04-26 10:34 27.55424 -139.82677 35199 ft 534 kts 64°
2026-04-26 10:34 27.58309 -139.74937 35197 ft 534 kts 64°
2026-04-26 10:35 27.61182 -139.67217 35200 ft 534 kts 64°
2026-04-26 10:35 27.64048 -139.59495 35200 ft 534 kts 64°
2026-04-26 10:36 27.66912 -139.51767 35198 ft 533 kts 64°
2026-04-26 10:36 27.69750 -139.44092 35195 ft 534 kts 64°
2026-04-26 10:37 27.72605 -139.36355 35194 ft 533 kts 64°
2026-04-26 10:37 27.75455 -139.28615 35197 ft 533 kts 64°
2026-04-26 10:38 27.78303 -139.20865 35198 ft 533 kts 64°
2026-04-26 10:38 27.81140 -139.13130 35190 ft 533 kts 64°
2026-04-26 10:39 27.83974 -139.05389 35196 ft 533 kts 64°
2026-04-26 10:39 27.86784 -138.97696 35191 ft 533 kts 64°
2026-04-26 10:40 27.89610 -138.89945 35191 ft 533 kts 64°
2026-04-26 10:40 27.92430 -138.82188 35192 ft 533 kts 64°
2026-04-26 10:41 27.95247 -138.74421 35195 ft 533 kts 64°
2026-04-26 10:41 27.98056 -138.66659 35194 ft 533 kts 64°
2026-04-26 10:42 28.00389 -138.60200 35196 ft 533 kts 64°
2026-04-26 10:42 28.03669 -138.51104 35193 ft 533 kts 64°
2026-04-26 10:43 28.06448 -138.43375 35192 ft 533 kts 64°
2026-04-26 10:43 28.09239 -138.35600 35192 ft 533 kts 64°
2026-04-26 10:44 28.11561 -138.29116 35194 ft 533 kts 64°
2026-04-26 10:44 28.14800 -138.20055 35195 ft 533 kts 64°
2026-04-26 10:45 28.17131 -138.13521 35188 ft 533 kts 64°
2026-04-26 10:45 28.19910 -138.05717 35190 ft 534 kts 64°
2026-04-26 10:46 28.22665 -137.97961 35191 ft 533 kts 64°
2026-04-26 10:46 28.25437 -137.90142 35184 ft 534 kts 64°
2026-04-26 10:47 28.28203 -137.82325 35184 ft 534 kts 64°
2026-04-26 10:47 28.30966 -137.74499 35189 ft 534 kts 64°
2026-04-26 10:48 28.33724 -137.66669 35191 ft 534 kts 64°
2026-04-26 10:48 28.36463 -137.58879 35185 ft 534 kts 64°
2026-04-26 10:49 28.39213 -137.51036 35186 ft 534 kts 64°
2026-04-26 10:49 28.41957 -137.43198 35185 ft 534 kts 64°
2026-04-26 10:50 28.44703 -137.35336 35186 ft 534 kts 64°
2026-04-26 10:50 28.47440 -137.27482 35181 ft 535 kts 64°
2026-04-26 10:51 28.51541 -137.15684 35184 ft 535 kts 64°
2026-04-26 10:52 28.54271 -137.07808 35183 ft 535 kts 64°
2026-04-26 10:52 28.56998 -136.99921 35181 ft 535 kts 64°
2026-04-26 10:53 28.59747 -136.91970 35187 ft 546 kts 66°
2026-04-26 10:53 28.62516 -136.83910 35182 ft 547 kts 65°
2026-04-26 10:54 28.66655 -136.71861 35179 ft 547 kts 65°
2026-04-26 10:54 28.69418 -136.63792 35179 ft 547 kts 65°
2026-04-26 10:55 28.72177 -136.55716 35176 ft 546 kts 65°
2026-04-26 10:55 28.74929 -136.47644 35177 ft 547 kts 65°
2026-04-26 10:56 28.77678 -136.39559 35178 ft 547 kts 66°
2026-04-26 10:56 28.80421 -136.31476 35179 ft 547 kts 66°
2026-04-26 10:57 28.83144 -136.23431 35177 ft 547 kts 66°
2026-04-26 10:57 28.85896 -136.15285 35178 ft 547 kts 66°
2026-04-26 10:58 28.88614 -136.07217 35177 ft 547 kts 66°
2026-04-26 10:58 28.91344 -135.99099 35176 ft 548 kts 66°
2026-04-26 10:59 28.94068 -135.90977 35176 ft 548 kts 66°
2026-04-26 10:59 28.96790 -135.82846 35172 ft 548 kts 66°
2026-04-26 11:00 28.99509 -135.74700 35167 ft 549 kts 66°
2026-04-26 11:00 29.02224 -135.66549 35172 ft 549 kts 66°
2026-04-26 11:01 29.04921 -135.58434 35166 ft 549 kts 66°
2026-04-26 11:01 29.07629 -135.50268 35165 ft 549 kts 66°
2026-04-26 11:02 29.10334 -135.42088 35166 ft 550 kts 66°
2026-04-26 11:02 29.13039 -135.33891 35164 ft 550 kts 66°
2026-04-26 11:03 29.15722 -135.25743 35167 ft 551 kts 66°
2026-04-26 11:03 29.18419 -135.17532 35160 ft 552 kts 66°
2026-04-26 11:04 29.21114 -135.09305 35162 ft 552 kts 66°
2026-04-26 11:04 29.23806 -135.01070 35160 ft 552 kts 66°
2026-04-26 11:05 29.26496 -134.92821 35160 ft 553 kts 66°
2026-04-26 11:05 29.29180 -134.84568 35158 ft 553 kts 66°
2026-04-26 11:06 29.31868 -134.76284 35159 ft 554 kts 66°
2026-04-26 11:06 29.34534 -134.68052 35161 ft 554 kts 66°
2026-04-26 11:07 29.37210 -134.59763 35157 ft 555 kts 66°
2026-04-26 11:07 29.39886 -134.51457 35158 ft 555 kts 66°
2026-04-26 11:08 29.42561 -134.43133 35156 ft 556 kts 66°
2026-04-26 11:08 29.45232 -134.34799 35158 ft 556 kts 66°
2026-04-26 11:09 29.47904 -134.26445 35158 ft 557 kts 66°
2026-04-26 11:09 29.50554 -134.18137 35151 ft 557 kts 66°
2026-04-26 11:10 29.53218 -134.09767 35148 ft 558 kts 66°
2026-04-26 11:10 29.55876 -134.01393 35149 ft 558 kts 66°
2026-04-26 11:11 29.58533 -133.93000 35145 ft 559 kts 66°
2026-04-26 11:11 29.61169 -133.84653 35147 ft 559 kts 66°
2026-04-26 11:12 29.63821 -133.76233 35151 ft 560 kts 66°
2026-04-26 11:12 29.66467 -133.67813 35149 ft 560 kts 66°
2026-04-26 11:13 29.69113 -133.59370 35150 ft 561 kts 67°
2026-04-26 11:13 29.71752 -133.50927 35150 ft 561 kts 67°
2026-04-26 11:14 29.74392 -133.42462 35141 ft 562 kts 67°
2026-04-26 11:14 29.76581 -133.35425 35146 ft 562 kts 67°
2026-04-26 11:15 29.79641 -133.25564 35144 ft 563 kts 67°
2026-04-26 11:15 29.82271 -133.17065 35140 ft 563 kts 67°
2026-04-26 11:16 29.84896 -133.08559 35141 ft 564 kts 67°
2026-04-26 11:16 29.87520 -133.00034 35141 ft 564 kts 67°
2026-04-26 11:17 29.90141 -132.91497 35138 ft 565 kts 67°
2026-04-26 11:17 29.92741 -132.83006 35137 ft 565 kts 67°
2026-04-26 11:18 29.95354 -132.74452 35138 ft 566 kts 67°
2026-04-26 11:18 29.97964 -132.65882 35137 ft 566 kts 67°
2026-04-26 11:19 30.00560 -132.57337 35135 ft 567 kts 67°
2026-04-26 11:19 30.03166 -132.48736 35137 ft 567 kts 67°
2026-04-26 11:20 30.05329 -132.41582 35137 ft 568 kts 67°
2026-04-26 11:20 30.08363 -132.31514 35134 ft 568 kts 68°
2026-04-26 11:21 30.10959 -132.22880 35130 ft 569 kts 68°
2026-04-26 11:21 30.13534 -132.14287 35132 ft 569 kts 68°
2026-04-26 11:22 30.16120 -132.05636 35132 ft 570 kts 68°
2026-04-26 11:22 30.18703 -131.96972 35127 ft 570 kts 68°
2026-04-26 11:23 30.21281 -131.88302 35129 ft 570 kts 68°
2026-04-26 11:23 30.23855 -131.79622 35128 ft 571 kts 68°
2026-04-26 11:24 30.26425 -131.70928 35128 ft 571 kts 68°
2026-04-26 11:24 30.28992 -131.62221 35125 ft 571 kts 68°
2026-04-26 11:25 30.31551 -131.53515 35129 ft 572 kts 68°
2026-04-26 11:25 30.34106 -131.44798 35125 ft 572 kts 68°
2026-04-26 11:26 30.36640 -131.36124 35121 ft 572 kts 68°
2026-04-26 11:26 30.39187 -131.27386 35119 ft 572 kts 68°
2026-04-26 11:27 30.41728 -131.18642 35127 ft 573 kts 68°
2026-04-26 11:27 30.44265 -131.09888 35119 ft 573 kts 68°
2026-04-26 11:28 30.46797 -131.01126 35123 ft 573 kts 68°
2026-04-26 11:28 30.49325 -130.92351 35119 ft 573 kts 69°
2026-04-26 11:29 30.51848 -130.83573 35121 ft 574 kts 69°
2026-04-26 11:29 30.54351 -130.74836 35118 ft 574 kts 69°
2026-04-26 11:30 30.56454 -130.67476 35118 ft 574 kts 69°
2026-04-26 11:30 30.59369 -130.57245 35118 ft 574 kts 69°
2026-04-26 11:31 30.61871 -130.48439 35115 ft 575 kts 69°
2026-04-26 11:31 30.64368 -130.39622 35114 ft 575 kts 69°
2026-04-26 11:32 30.66441 -130.32283 35118 ft 575 kts 69°
2026-04-26 11:32 30.68930 -130.23448 35118 ft 575 kts 69°
2026-04-26 11:33 30.71415 -130.14603 35116 ft 575 kts 69°
2026-04-26 11:33 30.73879 -130.05807 35113 ft 575 kts 69°
2026-04-26 11:34 30.76349 -129.96961 35114 ft 575 kts 69°
2026-04-26 11:34 30.78812 -129.88117 35108 ft 575 kts 70°
2026-04-26 11:35 30.81269 -129.79265 35116 ft 575 kts 70°
2026-04-26 11:35 30.83724 -129.70397 35106 ft 575 kts 70°
2026-04-26 11:36 30.86154 -129.61592 35105 ft 575 kts 70°
2026-04-26 11:36 30.88599 -129.52711 35107 ft 575 kts 70°
2026-04-26 11:37 30.91036 -129.43827 35104 ft 576 kts 70°
2026-04-26 11:37 30.93465 -129.34945 35099 ft 576 kts 70°
2026-04-26 11:38 30.95892 -129.26047 35108 ft 576 kts 70°
2026-04-26 11:38 30.98311 -129.17148 35107 ft 576 kts 70°
2026-04-26 11:39 31.00725 -129.08242 35101 ft 576 kts 70°
2026-04-26 11:39 31.03118 -128.99386 35101 ft 576 kts 71°
2026-04-26 11:40 31.05521 -128.90468 35097 ft 576 kts 71°
2026-04-26 11:40 31.07919 -128.81539 35098 ft 576 kts 71°
2026-04-26 11:42 31.17425 -128.45874 35095 ft 575 kts 71°
2026-04-26 11:43 31.19787 -128.36944 35091 ft 575 kts 71°
2026-04-26 11:43 31.22144 -128.28003 35090 ft 575 kts 71°
2026-04-26 11:44 31.24495 -128.19060 35089 ft 575 kts 71°
2026-04-26 11:44 31.26825 -128.10166 35085 ft 575 kts 72°
2026-04-26 11:45 31.29163 -128.01215 35090 ft 575 kts 72°
2026-04-26 11:45 31.31496 -127.92255 35087 ft 575 kts 72°
2026-04-26 11:46 31.33823 -127.83290 35085 ft 575 kts 72°
2026-04-26 11:46 31.36142 -127.74326 35086 ft 576 kts 72°
2026-04-26 11:47 31.38440 -127.65416 35084 ft 576 kts 72°
2026-04-26 11:47 31.40750 -127.56431 35087 ft 576 kts 72°
2026-04-26 11:48 31.43055 -127.47432 35083 ft 576 kts 72°
2026-04-26 11:48 31.45352 -127.38441 35083 ft 576 kts 72°
2026-04-26 11:49 31.47641 -127.29449 35083 ft 576 kts 72°
2026-04-26 11:49 31.49926 -127.20449 35080 ft 576 kts 72°
2026-04-26 11:50 31.52203 -127.11445 35080 ft 576 kts 72°
2026-04-26 11:50 31.54476 -127.02432 35078 ft 576 kts 72°
2026-04-26 11:51 31.56725 -126.93482 35079 ft 576 kts 72°
2026-04-26 11:51 31.58987 -126.84453 35077 ft 576 kts 73°
2026-04-26 11:52 31.60860 -126.76953 35075 ft 576 kts 73°
2026-04-26 11:52 31.63488 -126.66394 35077 ft 576 kts 73°
2026-04-26 11:53 31.65728 -126.57366 35075 ft 576 kts 73°
2026-04-26 11:54 31.69066 -126.43851 35070 ft 577 kts 73°
2026-04-26 11:54 31.71293 -126.34796 35073 ft 577 kts 73°
2026-04-26 11:55 31.73514 -126.25736 35072 ft 577 kts 73°
2026-04-26 11:55 31.75730 -126.16665 35071 ft 577 kts 73°
2026-04-26 11:56 31.77937 -126.07601 35073 ft 577 kts 73°
2026-04-26 11:56 31.80141 -125.98517 35072 ft 577 kts 73°
2026-04-26 11:57 31.82336 -125.89444 35070 ft 577 kts 73°
2026-04-26 11:57 31.84509 -125.80426 35067 ft 577 kts 73°
2026-04-26 11:58 31.86696 -125.71324 35068 ft 577 kts 73°
2026-04-26 11:58 31.88873 -125.62229 35067 ft 577 kts 73°
2026-04-26 11:59 31.91044 -125.53129 35065 ft 577 kts 73°
2026-04-26 11:59 31.93209 -125.44021 35066 ft 577 kts 74°
2026-04-26 12:00 31.95370 -125.34899 35063 ft 577 kts 74°
2026-04-26 12:00 31.97520 -125.25790 35062 ft 577 kts 74°
2026-04-26 12:01 31.99666 -125.16667 35063 ft 578 kts 74°
2026-04-26 12:01 32.01806 -125.07540 35061 ft 578 kts 74°
2026-04-26 12:02 32.03928 -124.98455 35058 ft 578 kts 74°
2026-04-26 12:02 32.06057 -124.89309 35060 ft 578 kts 74°
2026-04-26 12:03 32.08182 -124.80149 35055 ft 579 kts 74°
2026-04-26 12:03 32.10300 -124.70983 35059 ft 579 kts 74°
2026-04-26 12:04 32.12412 -124.61813 35060 ft 579 kts 74°
2026-04-26 12:04 32.14504 -124.52697 35062 ft 578 kts 74°
2026-04-26 12:05 32.16599 -124.43533 35053 ft 578 kts 74°
2026-04-26 12:05 32.18691 -124.34350 35051 ft 578 kts 74°
2026-04-26 12:06 32.20775 -124.25170 35052 ft 579 kts 75°
2026-04-26 12:06 32.22853 -124.15982 35049 ft 579 kts 75°
2026-04-26 12:07 32.24861 -124.06838 35049 ft 579 kts 75°
2026-04-26 12:07 32.26798 -123.97589 35048 ft 579 kts 76°
2026-04-26 12:08 32.28721 -123.88324 35040 ft 580 kts 76°
2026-04-26 12:08 32.30636 -123.79069 35045 ft 580 kts 76°
2026-04-26 12:09 32.32536 -123.69846 35049 ft 580 kts 76°
2026-04-26 12:09 32.34443 -123.60559 35044 ft 580 kts 76°
2026-04-26 12:10 32.36343 -123.51270 35038 ft 581 kts 76°
2026-04-26 12:10 32.38235 -123.41981 35045 ft 581 kts 76°
2026-04-26 12:11 32.40121 -123.32683 35043 ft 581 kts 76°
2026-04-26 12:11 32.41986 -123.23449 35035 ft 581 kts 76°
2026-04-26 12:12 32.43860 -123.14137 35031 ft 581 kts 76°
2026-04-26 12:12 32.45729 -123.04817 35037 ft 582 kts 76°
2026-04-26 12:13 32.49091 -122.96232 35067 ft 572 kts 46°
2026-04-26 12:13 32.51817 -122.92884 35069 ft 560 kts 32°
2026-04-26 12:13 32.55042 -122.90400 35073 ft 545 kts 17°
2026-04-26 12:14 32.62028 -122.87199 35034 ft 538 kts 13°
2026-04-26 12:14 32.68957 -122.83768 35023 ft 541 kts 17°
2026-04-26 12:15 32.75652 -122.79706 35023 ft 546 kts 23°
2026-04-26 12:15 32.82212 -122.75129 35016 ft 546 kts 24°
2026-04-26 12:16 32.88744 -122.70512 35017 ft 545 kts 24°
2026-04-26 12:16 32.95261 -122.65897 35015 ft 544 kts 24°
2026-04-26 12:17 33.01770 -122.61281 35017 ft 543 kts 25°
2026-04-26 12:17 33.08258 -122.56671 35014 ft 542 kts 25°
2026-04-26 12:18 33.14691 -122.52093 35016 ft 541 kts 25°
2026-04-26 12:18 33.21154 -122.47486 35014 ft 540 kts 25°
2026-04-26 12:19 33.27390 -122.42457 35036 ft 549 kts 41°
2026-04-26 12:19 33.31124 -122.36247 35036 ft 559 kts 60°
2026-04-26 12:20 33.34912 -122.28134 35010 ft 558 kts 58°
2026-04-26 12:20 33.39427 -122.18781 35003 ft 558 kts 57°
2026-04-26 12:21 33.42681 -122.12039 35002 ft 557 kts 57°
2026-04-26 12:21 33.46529 -122.04048 35003 ft 557 kts 58°
2026-04-26 12:22 33.50399 -121.95991 34999 ft 557 kts 58°
2026-04-26 12:22 33.54256 -121.87943 35004 ft 557 kts 58°
2026-04-26 12:23 33.58111 -121.79880 35005 ft 556 kts 58°
2026-04-26 12:23 33.61930 -121.71876 34998 ft 556 kts 58°
2026-04-26 12:24 33.65765 -121.63820 34997 ft 555 kts 58°
2026-04-26 12:24 33.69586 -121.55773 35001 ft 555 kts 58°
2026-04-26 12:25 33.75316 -121.43675 34991 ft 554 kts 58°
2026-04-26 12:25 33.79118 -121.35623 34992 ft 554 kts 58°
2026-04-26 12:26 33.82894 -121.27610 34996 ft 553 kts 58°
2026-04-26 12:26 33.86682 -121.19552 34997 ft 553 kts 58°
2026-04-26 12:27 33.90449 -121.11522 34992 ft 552 kts 58°
2026-04-26 12:27 33.94223 -121.03458 34994 ft 552 kts 58°
2026-04-26 12:28 33.97982 -120.95406 34989 ft 552 kts 58°
2026-04-26 12:28 34.01735 -120.87350 34989 ft 551 kts 58°
2026-04-26 12:29 34.05482 -120.79289 34987 ft 551 kts 58°
2026-04-26 12:30 34.11049 -120.67235 34983 ft 551 kts 62°
2026-04-26 12:30 34.13697 -120.58564 34995 ft 553 kts 75°
2026-04-26 12:31 34.16522 -120.45021 34983 ft 554 kts 76°
2026-04-26 12:31 34.18362 -120.35985 34982 ft 554 kts 77°
2026-04-26 12:32 34.19366 -120.26781 34989 ft 554 kts 87°
2026-04-26 12:33 34.19930 -120.12889 34976 ft 555 kts 88°
2026-04-26 12:33 34.20105 -120.03579 34972 ft 554 kts 91°
2026-04-26 12:34 34.20014 -119.94258 34964 ft 555 kts 92°
2026-04-26 12:34 34.19887 -119.84927 34964 ft 555 kts 92°
2026-04-26 12:35 34.19754 -119.75596 34962 ft 556 kts 92°
2026-04-26 12:35 34.19614 -119.66241 34960 ft 557 kts 92°
2026-04-26 12:36 34.19469 -119.56936 34957 ft 557 kts 92°
2026-04-26 12:36 34.19315 -119.47575 34953 ft 557 kts 92°
2026-04-26 12:37 34.19146 -119.38229 34953 ft 558 kts 92°
2026-04-26 12:37 34.19001 -119.28855 34952 ft 558 kts 92°
2026-04-26 12:38 34.18845 -119.19476 34954 ft 559 kts 93°
2026-04-26 12:38 34.18659 -119.10090 34950 ft 558 kts 97°
2026-04-26 12:38 34.18001 -119.05503 34970 ft 553 kts 109°
2026-04-26 12:39 34.16665 -119.01250 34977 ft 547 kts 121°
2026-04-26 12:39 34.13386 -118.92934 34957 ft 549 kts 120°
2026-04-26 12:40 34.10118 -118.84594 34959 ft 550 kts 120°
2026-04-26 12:40 34.06826 -118.76224 34948 ft 552 kts 120°
2026-04-26 12:41 34.03666 -118.67774 34952 ft 557 kts 114°
2026-04-26 12:41 34.02599 -118.63275 34966 ft 563 kts 102°
2026-04-26 12:41 34.02193 -118.58551 34964 ft 566 kts 97°
2026-04-26 12:42 34.01378 -118.49177 34948 ft 567 kts 96°
2026-04-26 12:42 34.01923 -118.39710 34972 ft 571 kts 77°
2026-04-26 12:43 34.03266 -118.30269 34952 ft 572 kts 83°
2026-04-26 12:43 34.04037 -118.20736 34967 ft 568 kts 97°
2026-04-26 12:43 34.03415 -118.16065 34975 ft 561 kts 111°
2026-04-26 12:44 34.01954 -118.11768 34975 ft 550 kts 127°
2026-04-26 12:44 33.99754 -118.08074 34977 ft 536 kts 141°
2026-04-26 12:44 33.96970 -118.05204 34979 ft 519 kts 156°
2026-04-26 12:44 33.93799 -118.03325 34980 ft 499 kts 172°
2026-04-26 12:45 33.90466 -118.02536 34980 ft 478 kts 187°
2026-04-26 12:45 33.87225 -118.02869 34977 ft 458 kts 203°
2026-04-26 12:45 33.84343 -118.04261 34983 ft 440 kts 219°
2026-04-26 12:45 33.82096 -118.06504 34946 ft 427 kts 235°
2026-04-26 12:46 33.80565 -118.09509 34948 ft 419 kts 252°
2026-04-26 12:46 33.79970 -118.12915 34975 ft 420 kts 268°
2026-04-26 12:46 33.80363 -118.16411 34978 ft 428 kts 283°
2026-04-26 12:47 33.82510 -118.23166 34924 ft 434 kts 287°
2026-04-26 12:47 33.84863 -118.29856 34927 ft 435 kts 288°
2026-04-26 12:48 33.87248 -118.36551 34935 ft 435 kts 288°
2026-04-26 12:48 33.89634 -118.43253 34932 ft 436 kts 288°
2026-04-26 12:49 33.91503 -118.50124 34947 ft 429 kts 275°
2026-04-26 12:49 33.92012 -118.57206 34942 ft 427 kts 269°
2026-04-26 12:50 33.91976 -118.64354 34941 ft 427 kts 266°
2026-04-26 12:50 33.91779 -118.71495 34936 ft 427 kts 266°
2026-04-26 12:51 33.91955 -118.78614 34983 ft 433 kts 284°
2026-04-26 12:51 33.93283 -118.81920 35000 ft 447 kts 301°
2026-04-26 12:51 33.95427 -118.84694 34997 ft 459 kts 309°
2026-04-26 12:51 33.97427 -118.87601 34993 ft 444 kts 293°
2026-04-26 12:52 33.98544 -118.91001 34999 ft 433 kts 277°
2026-04-26 12:52 33.98685 -118.94588 35002 ft 428 kts 260°
2026-04-26 12:52 33.97848 -118.98020 34999 ft 430 kts 244°
2026-04-26 12:53 33.94482 -119.04034 34948 ft 434 kts 236°
2026-04-26 12:53 33.91020 -119.09971 34948 ft 431 kts 245°
2026-04-26 12:54 33.88837 -119.16607 34939 ft 429 kts 253°
2026-04-26 12:54 33.87275 -119.23532 34936 ft 429 kts 257°
2026-04-26 12:55 33.85935 -119.30527 34938 ft 428 kts 257°
2026-04-26 12:55 33.84870 -119.37582 34948 ft 429 kts 261°
2026-04-26 12:56 33.84061 -119.44690 34948 ft 429 kts 262°
2026-04-26 12:56 33.83271 -119.51810 34947 ft 429 kts 262°
2026-04-26 12:57 33.82476 -119.58931 34964 ft 430 kts 262°
2026-04-26 12:57 33.81675 -119.66058 34969 ft 430 kts 262°
2026-04-26 12:58 33.80469 -119.76704 34977 ft 430 kts 262°
2026-04-26 12:58 33.79657 -119.83830 34982 ft 430 kts 262°
2026-04-26 12:59 33.78840 -119.90962 34984 ft 431 kts 262°
2026-04-26 12:59 33.78016 -119.98109 34990 ft 431 kts 262°
2026-04-26 13:00 33.77190 -120.05246 34988 ft 431 kts 262°
2026-04-26 13:00 33.76359 -120.12385 34993 ft 431 kts 262°
2026-04-26 13:01 33.75524 -120.19524 34989 ft 431 kts 261°
2026-04-26 13:01 33.74685 -120.26663 34991 ft 431 kts 261°
2026-04-26 13:02 33.73848 -120.33748 34989 ft 431 kts 261°
2026-04-26 13:02 33.73000 -120.40881 34991 ft 431 kts 261°
2026-04-26 13:03 33.72148 -120.48021 34991 ft 431 kts 261°
2026-04-26 13:03 33.71292 -120.55157 34998 ft 432 kts 261°
2026-04-26 13:04 33.70430 -120.62302 35000 ft 432 kts 261°
2026-04-26 13:04 33.69564 -120.69449 35001 ft 433 kts 261°
2026-04-26 13:05 33.68693 -120.76605 34998 ft 433 kts 261°
2026-04-26 13:05 33.67818 -120.83755 34998 ft 433 kts 261°
2026-04-26 13:06 33.66945 -120.90858 35001 ft 433 kts 261°
2026-04-26 13:06 33.66062 -120.98004 35000 ft 432 kts 261°
2026-04-26 13:07 33.65173 -121.05156 35006 ft 433 kts 261°
2026-04-26 13:07 33.64433 -121.11097 35003 ft 433 kts 261°
2026-04-26 13:08 33.63536 -121.18254 35004 ft 433 kts 261°
2026-04-26 13:08 33.62642 -121.25358 35002 ft 433 kts 261°
2026-04-26 13:09 33.61737 -121.32512 35005 ft 433 kts 261°
2026-04-26 13:09 33.60828 -121.39661 35008 ft 434 kts 261°
2026-04-26 13:10 33.59915 -121.46817 35007 ft 434 kts 261°
2026-04-26 13:10 33.58997 -121.53971 35004 ft 434 kts 261°
2026-04-26 13:11 33.58080 -121.61085 35007 ft 434 kts 261°
2026-04-26 13:11 33.57153 -121.68246 35009 ft 434 kts 261°
2026-04-26 13:12 33.56221 -121.75407 35006 ft 435 kts 261°
2026-04-26 13:12 33.55286 -121.82563 35007 ft 435 kts 261°
2026-04-26 13:13 33.54346 -121.89727 35011 ft 435 kts 261°
2026-04-26 13:13 33.53401 -121.96890 35009 ft 435 kts 261°
2026-04-26 13:14 33.52451 -122.04055 35009 ft 435 kts 261°
2026-04-26 13:14 33.51497 -122.11223 35010 ft 435 kts 261°
2026-04-26 13:15 33.50539 -122.18387 35012 ft 436 kts 261°
2026-04-26 13:15 33.49581 -122.25521 35012 ft 436 kts 261°
2026-04-26 13:16 33.48614 -122.32689 35014 ft 436 kts 261°
2026-04-26 13:16 33.47640 -122.39875 35012 ft 436 kts 261°
2026-04-26 13:17 33.46172 -122.50648 35013 ft 437 kts 261°
2026-04-26 13:18 33.44701 -122.61372 35015 ft 437 kts 261°
2026-04-26 13:19 33.43211 -122.72159 35018 ft 437 kts 261°
2026-04-26 13:19 33.42214 -122.79335 35020 ft 437 kts 260°
2026-04-26 13:20 33.41213 -122.86516 35020 ft 437 kts 260°
2026-04-26 13:20 33.40212 -122.93655 35018 ft 437 kts 260°
2026-04-26 13:21 33.39203 -123.00833 35022 ft 437 kts 260°
2026-04-26 13:21 33.38188 -123.08013 35022 ft 438 kts 260°
2026-04-26 13:22 33.37168 -123.15202 35023 ft 438 kts 260°
2026-04-26 13:22 33.36143 -123.22391 35024 ft 438 kts 260°
2026-04-26 13:23 33.35115 -123.29576 35025 ft 438 kts 260°
2026-04-26 13:23 33.34085 -123.36745 35024 ft 438 kts 260°
2026-04-26 13:24 33.33055 -123.43874 35024 ft 438 kts 260°
2026-04-26 13:24 33.32015 -123.51051 35026 ft 438 kts 260°
2026-04-26 13:25 33.30970 -123.58234 35030 ft 438 kts 260°
2026-04-26 13:25 33.29921 -123.65412 35033 ft 438 kts 260°
2026-04-26 13:26 33.28868 -123.72582 35029 ft 438 kts 260°
2026-04-26 13:26 33.27811 -123.79756 35030 ft 438 kts 260°
2026-04-26 13:27 33.26749 -123.86929 35031 ft 439 kts 260°
2026-04-26 13:27 33.25683 -123.94105 35033 ft 439 kts 260°
2026-04-26 13:28 33.24617 -124.01248 35035 ft 439 kts 260°
2026-04-26 13:28 33.23541 -124.08426 35035 ft 439 kts 260°
2026-04-26 13:29 33.22461 -124.15605 35033 ft 439 kts 259°
2026-04-26 13:29 33.21375 -124.22795 35037 ft 439 kts 259°
2026-04-26 13:30 33.20286 -124.29975 35038 ft 439 kts 259°
2026-04-26 13:30 33.19193 -124.37156 35038 ft 440 kts 259°
2026-04-26 13:31 33.18101 -124.44296 35039 ft 440 kts 259°
2026-04-26 13:31 33.16999 -124.51478 35041 ft 440 kts 259°
2026-04-26 13:32 33.15891 -124.58668 35038 ft 440 kts 259°
2026-04-26 13:32 33.14779 -124.65852 35039 ft 440 kts 259°
2026-04-26 13:33 33.13663 -124.73035 35039 ft 440 kts 259°
2026-04-26 13:33 33.12541 -124.80230 35042 ft 441 kts 259°
2026-04-26 13:34 33.11415 -124.87421 35042 ft 441 kts 259°
2026-04-26 13:34 33.10285 -124.94614 35044 ft 441 kts 259°
2026-04-26 13:35 33.09157 -125.01761 35043 ft 441 kts 259°
2026-04-26 13:35 33.08017 -125.08957 35043 ft 441 kts 259°
2026-04-26 13:36 33.06873 -125.16151 35046 ft 441 kts 259°
2026-04-26 13:36 33.05724 -125.23348 35045 ft 441 kts 259°
2026-04-26 13:37 33.04572 -125.30536 35046 ft 441 kts 259°
2026-04-26 13:37 33.03415 -125.37727 35044 ft 441 kts 259°
2026-04-26 13:38 33.02261 -125.44875 35051 ft 441 kts 259°
2026-04-26 13:38 33.01095 -125.52065 35050 ft 442 kts 259°
2026-04-26 13:39 32.99925 -125.59257 35048 ft 442 kts 259°
2026-04-26 13:39 32.98750 -125.66454 35051 ft 442 kts 259°